KC0AFB Weather Reports


Display with metric or nautical units.
time (UTC)temp
F
wind
direction
speed
MPH
gust
MPH
rain 1hr
in
rain 24hr
in
rain mn
in
humidity
%
barometer
mb
20260902045219 65 65 5.0 5.0 0.00 0.00 0.00 69 1014.4
20260902044714 65 72 3.0 3.0 0.00 0.00 0.00 69 1014.6
20260902044209 65 100 3.0 5.0 0.00 0.00 0.00 67 1014.9
20260902043659 66 119 4.0 5.0 0.00 0.00 0.00 67 1014.8
20260902043154 66 89 3.0 3.0 0.00 0.00 0.00 67 1014.6
20260902042653 66 80 3.0 3.0 0.00 0.00 0.00 66 1014.6
20260902042148 65 102 3.0 3.0 0.00 0.00 0.00 68 1014.9
20260902041648 65 75 3.0 3.0 0.00 0.00 0.00 69 1015.0
20260902041142 66 81 3.0 3.0 0.00 0.00 0.00 68 1014.6
20260902040642 66 76 4.0 5.0 0.00 0.00 0.00 67 1014.4
20260902040137 66 66 3.0 3.0 0.00 0.00 0.00 67 1015.0
20260902035635 66 79 1.0 2.0 0.00 0.00 0.00 69 1014.9
20260902035131 67 76 2.0 3.0 0.00 0.00 0.00 67 1014.9
20260902034630 67 74 3.0 3.0 0.00 0.00 0.00 66 1014.8
20260902034125 67 83 4.0 5.0 0.00 0.00 0.00 66 1014.8
20260902033625 67 69 3.0 3.0 0.00 0.00 0.00 66 1014.9
20260902033119 67 82 2.0 2.0 0.00 0.00 0.00 66 1014.8
20260902032618 68 80 3.0 3.0 0.00 0.00 0.00 64 1014.9
20260902032112 68 70 3.0 3.0 0.00 0.00 0.00 63 1014.6
20260902031607 68 70 3.0 3.0 0.00 0.00 0.00 63 1014.5
20260902031104 68 76 4.0 5.0 0.00 0.00 0.00 62 1014.6
20260902030603 68 71 4.0 5.0 0.00 0.00 0.00 62 1014.5
20260902030058 68 88 3.0 3.0 0.00 0.00 0.00 63 1014.9
20260902025557 68 79 3.0 3.0 0.00 0.00 0.00 64 1014.8
20260902025047 67 63 4.0 5.0 0.00 0.00 0.00 64 1015.0
20260902024542 68 76 3.0 3.0 0.00 0.00 0.00 66 1015.0
20260902024037 68 79 2.0 2.0 0.00 0.00 0.00 65 1014.8
20260902023533 68 69 3.0 3.0 0.00 0.00 0.00 66 1014.9
20260902023027 68 64 2.0 2.0 0.00 0.00 0.00 67 1014.6
20260902022522 68 60 3.0 5.0 0.00 0.00 0.00 67 1014.6
20260902022018 68 74 2.0 2.0 0.00 0.00 0.00 67 1014.8
20260902021513 69 67 2.0 2.0 0.00 0.00 0.00 66 1014.6
20260902021008 68 71 2.0 2.0 0.00 0.00 0.00 67 1014.6
20260902020504 68 95 2.0 3.0 0.00 0.00 0.00 69 1014.5
20260902015959 68 100 1.0 2.0 0.00 0.00 0.00 69 1014.8
20260902015455 68 102 2.0 2.0 0.00 0.00 0.00 70 1014.4
20260902014950 68 104 1.0 2.0 0.00 0.00 0.00 69 1014.5
20260902014447 69 87 1.0 1.0 0.00 0.00 0.00 69 1014.5
20260902013947 69 87 3.0 3.0 0.00 0.00 0.00 67 1014.3
20260902013441 69 74 2.0 2.0 0.00 0.00 0.00 67 1014.3
20260902012936 69 73 1.0 2.0 0.00 0.00 0.00 67 1014.5
20260902012432 70 90 1.0 1.0 0.00 0.00 0.00 65 1014.5
20260902011928 70 75 1.0 1.0 0.00 0.00 0.00 65 1014.5
20260902011422 71 91 1.0 1.0 0.00 0.00 0.00 66 1014.4
20260902010916 71 107 2.0 2.0 0.00 0.00 0.00 65 1014.6
20260902010412 71 95 1.0 2.0 0.00 0.00 0.00 66 1014.6
20260902005910 71 95 1.0 2.0 0.00 0.00 0.00 66 1014.5
20260902005410 72 87 1.0 1.0 0.00 0.00 0.00 67 1014.8
20260902004906 72 86 1.0 1.0 0.00 0.00 0.00 67 1014.6
20260902004405 73 79 2.0 2.0 0.00 0.00 0.00 63 1014.5
20260902003901 73 73 1.0 1.0 0.00 0.00 0.00 63 1014.6
20260902003356 73 74 1.0 1.0 0.00 0.00 0.00 62 1014.9
20260902002852 73 62 1.0 1.0 0.00 0.00 0.00 61 1014.6
20260902002350 73 75 1.0 1.0 0.00 0.00 0.00 61 1014.3
20260902001846 73 73 0.0 0.0 0.00 0.00 0.00 60 1014.8
20260902001341 74 63 1.0 1.0 0.00 0.00 0.00 61 1014.5
20260902000836 74 79 2.0 2.0 0.00 0.00 0.00 59 1014.6
20260902000337 74 74 0.0 0.0 0.00 0.00 0.00 59 1014.9
20260901235831 75 96 0.0 0.0 0.00 0.00 0.00 57 1014.8
20260901235330 74 113 2.0 2.0 0.00 0.00 0.00 55 1014.8
20260901234825 74 126 1.0 2.0 0.00 0.00 0.00 55 1015.0
20260901234319 74 126 1.0 1.0 0.00 0.00 0.00 56 1014.5
20260901233815 74 135 3.0 3.0 0.00 0.00 0.00 55 1015.1
20260901233311 74 132 2.0 3.0 0.00 0.00 0.00 57 1015.0
20260901232806 74 130 2.0 2.0 0.00 0.00 0.00 58 1015.3
20260901232301 74 124 2.0 2.0 0.00 0.00 0.00 58 1015.1
20260901231757 74 120 3.0 3.0 0.00 0.00 0.00 57 1014.9
20260901231253 75 146 3.0 3.0 0.00 0.00 0.00 56 1015.0
20260901230749 75 108 1.0 2.0 0.00 0.00 0.00 57 1015.2
20260901230248 75 109 1.0 2.0 0.00 0.00 0.00 56 1015.0
20260901225744 75 116 3.0 3.0 0.00 0.00 0.00 55 1014.9
20260901225238 75 121 2.0 2.0 0.00 0.00 0.00 55 1014.9
20260901224734 75 106 1.0 1.0 0.00 0.00 0.00 54 1015.1
20260901224225 75 112 2.0 2.0 0.00 0.00 0.00 53 1014.9
20260901223721 75 119 2.0 2.0 0.00 0.00 0.00 55 1015.1
20260901223215 75 103 2.0 2.0 0.00 0.00 0.00 53 1014.8
20260901222711 75 108 1.0 1.0 0.00 0.00 0.00 54 1014.9
20260901222208 75 115 3.0 3.0 0.00 0.00 0.00 51 1015.0
20260901221703 75 106 3.0 3.0 0.00 0.00 0.00 52 1015.1
20260901221159 75 104 2.0 2.0 0.00 0.00 0.00 52 1015.1
20260901220658 75 108 3.0 3.0 0.00 0.00 0.00 50 1015.3
20260901220157 76 127 2.0 2.0 0.00 0.00 0.00 49 1015.2
20260901215655 76 129 2.0 2.0 0.00 0.00 0.00 50 1015.2
20260901215150 76 132 3.0 3.0 0.00 0.00 0.00 50 1015.3
20260901214648 76 123 2.0 2.0 0.00 0.00 0.00 50 1015.4
20260901214143 76 128 3.0 3.0 0.00 0.00 0.00 50 1015.5
20260901213642 76 135 2.0 2.0 0.00 0.00 0.00 50 1015.3
20260901213137 76 134 2.0 2.0 0.00 0.00 0.00 48 1015.3
20260901212637 77 149 2.0 2.0 0.00 0.00 0.00 48 1015.3
20260901212133 77 141 1.0 1.0 0.00 0.00 0.00 51 1015.5
20260901211627 77 108 2.0 2.0 0.00 0.00 0.00 46 1015.3
20260901211124 77 102 1.0 2.0 0.00 0.00 0.00 47 1015.3
20260901210620 77 148 1.0 2.0 0.00 0.00 0.00 45 1015.6
20260901210116 77 157 3.0 3.0 0.00 0.00 0.00 45 1015.4
20260901205611 77 142 1.0 2.0 0.00 0.00 0.00 46 1015.6
20260901205105 77 108 3.0 3.0 0.00 0.00 0.00 46 1015.6
20260901204602 77 182 3.0 3.0 0.00 0.00 0.00 47 1015.8
20260901204056 77 135 3.0 3.0 0.00 0.00 0.00 48 1015.5
20260901203550 77 149 3.0 3.0 0.00 0.00 0.00 48 1015.7
20260901203046 77 160 3.0 3.0 0.00 0.00 0.00 47 1015.6
20260901202545 77 158 2.0 2.0 0.00 0.00 0.00 49 1015.7
20260901202042 77 186 2.0 2.0 0.00 0.00 0.00 48 1015.7
20260901201537 77 179 2.0 2.0 0.00 0.00 0.00 48 1015.8
20260901201036 77 181 2.0 2.0 0.00 0.00 0.00 47 1015.6
20260901200536 77 190 2.0 2.0 0.00 0.00 0.00 48 1015.9
20260901200031 77 151 2.0 2.0 0.00 0.00 0.00 46 1016.0
20260901195528 77 156 1.0 1.0 0.00 0.00 0.00 46 1016.2
20260901195023 77 215 4.0 5.0 0.00 0.00 0.00 45 1016.1
20260901194518 77 222 4.0 6.0 0.00 0.00 0.00 44 1016.2
20260901194014 78 228 4.0 5.0 0.00 0.00 0.00 44 1016.0
20260901193513 78 201 2.0 2.0 0.00 0.00 0.00 42 1016.1
20260901193014 78 231 1.0 2.0 0.00 0.00 0.00 43 1016.2
20260901192509 79 331 3.0 3.0 0.00 0.00 0.00 42 1016.0
20260901192004 79 147 2.0 2.0 0.00 0.00 0.00 43 1016.2
20260901191500 79 177 3.0 3.0 0.00 0.00 0.00 41 1016.2
20260901190955 80 249 3.0 5.0 0.00 0.00 0.00 40 1016.2
20260901190451 79 189 6.0 7.0 0.00 0.00 0.00 41 1016.1
20260901185949 79 189 4.0 5.0 0.00 0.00 0.00 43 1016.2
20260901185443 79 188 3.0 3.0 0.00 0.00 0.00 44 1016.4
20260901184943 77 184 1.0 2.0 0.00 0.00 0.00 46 1016.3
20260901184439 78 224 4.0 5.0 0.00 0.00 0.00 45 1016.3
20260901183934 77 154 1.0 2.0 0.00 0.00 0.00 45 1016.3
20260901183433 76 189 3.0 3.0 0.00 0.00 0.00 44 1016.2
20260901182929 76 195 3.0 3.0 0.00 0.00 0.00 44 1016.3
20260901182425 77 145 1.0 1.0 0.00 0.00 0.00 45 1016.4
20260901181919 76 263 1.0 1.0 0.00 0.00 0.00 45 1016.3
20260901181414 77 203 2.0 2.0 0.00 0.00 0.00 44 1016.3
20260901180912 77 323 2.0 2.0 0.00 0.00 0.00 46 1016.2
20260901180407 76 43 3.0 3.0 0.00 0.00 0.00 48 1016.7
20260901175905 76 43 3.0 3.0 0.00 0.00 0.00 48 1016.7
20260901175400 76 4 0.0 0.0 0.00 0.00 0.00 47 1016.4
20260901174856 77 254 3.0 3.0 0.00 0.00 0.00 48 1016.6
20260901174352 76 162 1.0 1.0 0.00 0.00 0.00 51 1016.8
20260901173847 77 183 1.0 1.0 0.00 0.00 0.00 51 1016.7
20260901173341 76 146 2.0 2.0 0.00 0.00 0.00 51 1016.8
20260901172838 76 179 3.0 3.0 0.00 0.00 0.00 54 1016.9
20260901172337 77 197 3.0 3.0 0.00 0.00 0.00 52 1016.9
20260901171836 76 228 4.0 5.0 0.00 0.00 0.00 54 1016.8
20260901171335 77 77 0.0 1.0 0.00 0.00 0.00 50 1016.8
20260901170834 77 169 2.0 2.0 0.00 0.00 0.00 52 1016.9
20260901170328 76 149 2.0 2.0 0.00 0.00 0.00 55 1016.8
20260901165827 77 272 4.0 5.0 0.00 0.00 0.00 55 1017.0
20260901165322 76 136 1.0 2.0 0.00 0.00 0.00 52 1016.8
20260901164819 77 54 2.0 2.0 0.00 0.00 0.00 55 1016.7
20260901164314 76 104 1.0 2.0 0.00 0.00 0.00 54 1016.8
20260901163808 75 91 2.0 2.0 0.00 0.00 0.00 54 1016.8
20260901163303 75 99 2.0 2.0 0.00 0.00 0.00 57 1016.9
20260901162758 75 106 1.0 1.0 0.00 0.00 0.00 57 1017.0
20260901162257 75 161 3.0 5.0 0.00 0.00 0.00 55 1017.0
20260901161756 74 121 1.0 1.0 0.00 0.00 0.00 58 1016.9
20260901161250 74 45 1.0 1.0 0.00 0.00 0.00 56 1017.2
20260901160747 74 76 1.0 1.0 0.00 0.00 0.00 57 1017.0
20260901160243 73 135 1.0 1.0 0.00 0.00 0.00 56 1017.0
20260901155741 74 115 2.0 2.0 0.00 0.00 0.00 59 1016.8
20260901155236 74 94 0.0 0.0 0.00 0.00 0.00 59 1017.1
20260901154732 75 138 2.0 2.0 0.00 0.00 0.00 61 1016.8
20260901154226 75 74 0.0 0.0 0.00 0.00 0.00 58 1016.7
20260901153721 73 356 0.0 0.0 0.00 0.00 0.00 58 1017.0
20260901153220 72 106 1.0 1.0 0.00 0.00 0.00 65 1017.2
20260901152715 72 108 2.0 2.0 0.00 0.00 0.00 65 1016.8
20260901152213 71 155 2.0 2.0 0.00 0.00 0.00 64 1016.9
20260901151710 71 131 0.0 1.0 0.00 0.00 0.00 61 1016.8
20260901151209 72 125 2.0 2.0 0.00 0.00 0.00 61 1017.0
20260901150708 71 69 0.0 0.0 0.00 0.00 0.00 60 1017.0
20260901150206 70 86 0.0 0.0 0.00 0.00 0.00 63 1017.0
20260901145704 70 79 0.0 1.0 0.00 0.00 0.00 61 1016.8
20260901145159 68 71 0.0 0.0 0.00 0.00 0.00 64 1017.0
20260901144655 68 41 2.0 2.0 0.00 0.00 0.00 65 1017.1
20260901144149 67 318 1.0 2.0 0.00 0.00 0.00 65 1016.8
20260901143645 66 53 0.0 1.0 0.00 0.00 0.00 66 1017.1
20260901143141 66 65 0.0 0.0 0.00 0.00 0.00 68 1016.9
20260901142637 65 109 0.0 0.0 0.00 0.00 0.00 69 1017.2
20260901142136 64 171 0.0 0.0 0.00 0.00 0.00 68 1017.1
20260901141631 63 132 0.0 0.0 0.00 0.00 0.00 69 1017.2
20260901141131 65 200 5.0 6.0 0.00 0.00 0.00 70 1017.3
20260901140630 66 181 3.0 3.0 0.00 0.00 0.00 69 1017.4
20260901140129 65 59 0.0 1.0 0.00 0.00 0.00 67 1017.3
20260901135624 63 49 1.0 1.0 0.00 0.00 0.00 71 1017.0
20260901135119 62 35 1.0 1.0 0.00 0.00 0.00 71 1016.8
20260901134615 62 51 1.0 1.0 0.00 0.00 0.00 71 1016.8
20260901134110 62 65 0.0 0.0 0.00 0.00 0.00 71 1016.8
20260901133608 60 55 0.0 0.0 0.00 0.00 0.00 76 1017.0
20260901133108 60 36 0.0 0.0 0.00 0.00 0.00 73 1017.1
20260901132603 62 66 0.0 0.0 0.00 0.00 0.00 71 1017.2
20260901132102 61 65 0.0 0.0 0.00 0.00 0.00 71 1017.2
20260901131602 61 65 0.0 0.0 0.00 0.00 0.00 74 1017.1
20260901131057 59 65 0.0 0.0 0.00 0.00 0.00 76 1017.1
20260901130552 58 65 0.0 0.0 0.00 0.00 0.00 79 1017.1
20260901130050 57 64 0.0 0.0 0.00 0.00 0.00 79 1017.0
20260901125549 56 64 0.0 0.0 0.00 0.00 0.00 79 1016.7
20260901125045 57 62 0.0 0.0 0.00 0.00 0.00 79 1016.9
20260901124544 56 62 0.0 0.0 0.00 0.00 0.00 79 1016.8
20260901124039 55 62 0.0 0.0 0.00 0.00 0.00 80 1016.7
20260901123534 55 50 0.0 0.0 0.00 0.00 0.00 80 1016.8
20260901123033 54 22 0.0 0.0 0.00 0.00 0.00 80 1016.6
20260901122532 54 49 0.0 0.0 0.00 0.00 0.00 81 1016.6
20260901122026 54 29 1.0 1.0 0.00 0.00 0.00 80 1016.4
20260901121521 53 22 2.0 2.0 0.00 0.00 0.00 81 1016.7
20260901121016 53 66 0.0 0.0 0.00 0.00 0.00 81 1016.6
20260901120516 54 48 0.0 0.0 0.00 0.00 0.00 80 1016.6
20260901120012 54 11 2.0 2.0 0.00 0.00 0.00 80 1016.6
20260901115506 54 10 1.0 1.0 0.00 0.00 0.00 80 1016.4
20260901115004 53 22 0.0 0.0 0.00 0.00 0.00 81 1016.3
20260901114459 53 22 0.0 0.0 0.00 0.00 0.00 81 1016.3
20260901113956 53 42 0.0 0.0 0.00 0.00 0.00 82 1016.3
20260901113456 53 62 0.0 0.0 0.00 0.00 0.00 82 1016.4
20260901112951 53 56 0.0 0.0 0.00 0.00 0.00 83 1016.3
20260901112447 52 67 0.0 0.0 0.00 0.00 0.00 85 1016.3
20260901111942 51 82 0.0 0.0 0.00 0.00 0.00 85 1016.2
20260901111440 51 82 0.0 0.0 0.00 0.00 0.00 84 1016.1
20260901110938 52 83 0.0 0.0 0.00 0.00 0.00 83 1016.2
20260901110434 52 58 0.0 0.0 0.00 0.00 0.00 83 1016.0
20260901105930 53 57 0.0 0.0 0.00 0.00 0.00 83 1016.1
20260901105426 52 53 0.0 0.0 0.00 0.00 0.00 84 1016.0
20260901104921 52 70 0.0 0.0 0.00 0.00 0.00 84 1016.2
20260901104416 52 85 0.0 0.0 0.00 0.00 0.00 83 1016.2
20260901103912 53 82 0.0 1.0 0.00 0.00 0.00 81 1016.1
20260901103411 54 112 1.0 1.0 0.00 0.00 0.00 79 1016.0
20260901102907 55 57 0.0 1.0 0.00 0.00 0.00 78 1016.0
20260901102401 54 31 0.0 1.0 0.00 0.00 0.00 79 1016.0
20260901101856 53 68 0.0 0.0 0.00 0.00 0.00 80 1016.0
20260901101350 53 70 0.0 0.0 0.00 0.00 0.00 80 1016.0
20260901100850 54 70 0.0 0.0 0.00 0.00 0.00 79 1015.8
20260901100345 55 68 0.0 0.0 0.00 0.00 0.00 77 1015.8
20260901095838 56 53 0.0 0.0 0.00 0.00 0.00 76 1015.9
20260901095330 55 62 0.0 0.0 0.00 0.00 0.00 78 1016.0
20260901094824 55 73 0.0 0.0 0.00 0.00 0.00 77 1015.8
20260901094319 55 73 0.0 0.0 0.00 0.00 0.00 77 1015.8
20260901093815 55 73 0.0 0.0 0.00 0.00 0.00 77 1016.1
20260901093313 54 69 0.0 0.0 0.00 0.00 0.00 78 1016.0
20260901092810 54 74 0.0 0.0 0.00 0.00 0.00 79 1015.9
20260901092306 54 73 0.0 0.0 0.00 0.00 0.00 79 1016.0
20260901091801 54 90 0.0 0.0 0.00 0.00 0.00 79 1015.8
20260901091255 54 76 0.0 0.0 0.00 0.00 0.00 78 1015.7
20260901090750 54 51 1.0 1.0 0.00 0.00 0.00 78 1015.6
20260901090245 55 333 0.0 0.0 0.00 0.00 0.00 77 1015.8
20260901085741 55 332 1.0 1.0 0.00 0.00 0.00 76 1015.6
20260901085236 55 309 1.0 1.0 0.00 0.00 0.00 76 1015.7
20260901084732 56 301 1.0 1.0 0.00 0.00 0.00 75 1015.7
20260901084229 56 271 1.0 2.0 0.00 0.00 0.00 75 1015.5
20260901083728 55 143 1.0 1.0 0.00 0.00 0.00 76 1015.7
20260901083227 54 130 0.0 1.0 0.00 0.00 0.00 78 1015.4
20260901082726 54 102 0.0 0.0 0.00 0.00 0.00 78 1015.5
20260901082222 54 102 0.0 0.0 0.00 0.00 0.00 78 1015.5
20260901081718 55 153 2.0 2.0 0.00 0.00 0.00 77 1015.6
20260901081217 56 149 1.0 1.0 0.00 0.00 0.00 75 1015.3
20260901080712 57 87 1.0 1.0 0.00 0.00 0.00 73 1015.5
20260901080211 58 39 1.0 1.0 0.00 0.00 0.00 70 1015.6
20260901075712 59 31 1.0 1.0 0.00 0.00 0.00 69 1015.6
20260901075211 59 12 3.0 3.0 0.00 0.00 0.00 68 1015.4
20260901074706 59 26 3.0 3.0 0.00 0.00 0.00 68 1015.5
20260901074202 60 26 1.0 1.0 0.00 0.00 0.00 67 1015.6
20260901073658 61 353 2.0 2.0 0.00 0.00 0.00 65 1015.6
20260901073153 60 38 0.0 0.0 0.00 0.00 0.00 66 1015.6
20260901072648 59 64 0.0 0.0 0.00 0.00 0.00 68 1015.9
20260901072143 58 64 0.0 0.0 0.00 0.00 0.00 70 1015.7
20260901071642 57 64 0.0 0.0 0.00 0.00 0.00 71 1015.7
20260901071136 57 64 0.0 0.0 0.00 0.00 0.00 72 1015.7
20260901070630 57 65 0.0 0.0 0.00 0.00 0.00 74 1015.6
20260901070126 58 66 0.0 0.0 0.00 0.00 0.00 73 1015.9
20260901065615 57 63 0.0 0.0 0.00 0.00 0.00 72 1015.5
20260901065114 58 65 0.0 0.0 0.00 0.00 0.00 72 1015.6
20260901064612 61 56 0.0 0.0 0.00 0.00 0.00 66 1015.8
20260901064108 61 27 0.0 0.0 0.00 0.00 0.00 65 1015.7
20260901063604 61 4 0.0 0.0 0.00 0.00 0.00 65 1015.5
20260901063100 59 72 0.0 0.0 0.00 0.00 0.00 68 1015.7
20260901062550 59 73 0.0 0.0 0.00 0.00 0.00 68 1015.5
20260901062046 59 73 0.0 0.0 0.00 0.00 0.00 69 1015.5
20260901061543 58 74 0.0 0.0 0.00 0.00 0.00 70 1015.4
20260901061042 58 72 0.0 0.0 0.00 0.00 0.00 70 1015.6
20260901060537 57 82 0.0 0.0 0.00 0.00 0.00 72 1015.6
20260901060032 57 99 0.0 0.0 0.00 0.00 0.00 73 1015.6
20260901055528 57 99 0.0 0.0 0.00 0.00 0.00 73 1015.3
20260901055024 58 99 0.0 0.0 0.00 0.00 0.00 71 1015.6
20260901054521 59 95 0.0 0.0 0.00 0.00 0.00 69 1015.5
20260901054017 59 98 0.0 0.0 0.00 0.00 0.00 70 1015.5
20260901053512 59 110 0.0 0.0 0.00 0.00 0.00 70 1015.4
20260901053009 59 82 0.0 0.0 0.00 0.00 0.00 70 1015.3
20260901052503 58 93 0.0 0.0 0.00 0.00 0.00 71 1015.1
20260901052002 58 86 0.0 0.0 0.00 0.00 0.00 71 1015.3
20260901051453 59 121 0.0 0.0 0.00 0.00 0.00 70 1015.3
20260901050951 61 65 0.0 0.0 0.00 0.00 0.00 65 1015.4
20260901050446 61 51 0.0 0.0 0.00 0.00 0.00 64 1015.1
20260901045941 59 47 0.0 0.0 0.00 0.00 0.00 69 1015.3